Regional Weather Roundup
Issued by NWS

Home | Current Version | Previous Version | Graphics & Text | Print | Product List | Glossary On
Versions: 1 2 3 4 5 6 7 8 9 10 11 12 13 14 15 16 17 18 19 20 21 22 23 24 25 26 27 28 29 30 31 32 33 34 35 36 37 38 39 40 41 42 43 44 45 46 47 48 49 50
000
ASUS43 KFSD 220610
RWRSD

WEATHER ROUNDUP FOR SOUTH DAKOTA
NATIONAL WEATHER SERVICE SIOUX FALLS SD
1200 AM CST SAT NOV 22 2014

NOTE: "FAIR" INDICATES FEW OR NO CLOUDS BELOW 12,000 FEET WITH NO
SIGNIFICANT WEATHER AND/OR OBSTRUCTIONS TO VISIBILITY.


SDZ001>005-009-010-012>017-220700-
NORTHWEST AND NORTH CENTRAL SOUTH DAKOTA

CITY           SKY/WX    TMP DP  RH WIND       PRES   REMARKS
BUFFALO          N/A     34  25  69 W8        29.65F WCI  27
FAITH            N/A     33  24  69 S14       29.75F WCI  23
MOBRIDGE       PTCLDY    31  26  82 SE6       29.72F WCI  25
$$

SDZ012>016-024>037-041>051-057-063-072>074-220700-
SOUTHWEST AND SOUTH CENTRAL SOUTH DAKOTA

CITY           SKY/WX    TMP DP  RH WIND       PRES   REMARKS
RAPID CTY ARPT CLEAR     33  22  63 S3        29.79F
PIERRE         CLEAR     32  27  81 SW7       29.78F WCI  26
CUSTER         CLEAR     25  18  74 W5        29.80F WCI  19
ELLSWORTH AFB  CLEAR     35  23  61 SW7       29.77F WCI  29
PHILIP         CLEAR     32  23  69 W6        29.80F WCI  26
PINE RIDGE     CLEAR     20  17  88 E5        29.83F WCI  13
SPEARFISH      FAIR      34  21  60 CALM      29.76F
WINNER         FAIR      39  28  64 SW8       29.81F
$$

SDZ004>011-016>023-039-040-220700-
NORTHEAST SOUTH DAKOTA

CITY           SKY/WX    TMP DP  RH WIND       PRES   REMARKS
ABERDEEN       CLEAR     26  22  84 S7        29.76S WCI  18
WATERTOWN      MOCLDY    30  27  88 S10       29.78S WCI  21
SISSETON         N/A     38  29  70 VRB5      29.72R
$$

SDZ017-020-022-023-036>040-048>070-220700-
SOUTHEAST SOUTH DAKOTA

CITY           SKY/WX    TMP DP  RH WIND       PRES   REMARKS
SIOUX FALLS    PTCLDY    33  28  81 S12       29.85F WCI  24
HURON          CLEAR     30  28  92 S7        29.80F WCI  23
CHAMBERLAIN    CLEAR     28  27  94 W5        29.80F WCI  23
MITCHELL       CLEAR     30  29  96 S3        29.83F
YANKTON        PTCLDY    39  30  70 S8        29.87F
$$

ABBREVIATIONS USED IN REMARKS
   TC - TEMPERATURE IN CELSIUS
  WCI - WIND CHILL INDEX
   HX - HEAT INDEX
  VSB - VISIBILITY



USA.gov is the U.S. government's official web portal to all federal, state and local government web resources and services.